Valentine, NE

8:41 AM CDT on October 17, 2017 (GMT -0500)
Miller Field

Weather History for KVTN - February, 2014

Change the Weather History Date:

Saturday, February 15, 2014

  Actual Average Record
Temperature  
Mean Temperature 39 °F 27 °F  
Max Temperature 53 °F 40 °F 66 °F (2011)
Min Temperature 24 °F 14 °F -28 °F (2007)
Degree Days  
Heating Degree Days 26 38  
Month to date heating degree days 761 589  
Since 1 July heating degree days 4961 4767  
Cooling Degree Days 0 0  
Month to date cooling degree days 0 0  
Year to date cooling degree days 0 0  
Moisture  
Dew Point 26 °F    
Average Humidity 60    
Maximum Humidity 92    
Minimum Humidity 28    
Precipitation  
Precipitation 0.00 in 0.02 in 0.26 in (1938)
Month to date precipitation 0.20 0.21  
Year to date precipitation 0.24 0.47  
Snow  
Snow 0.00 in 0.20 in 4.60 in (1938)
Month to date snowfall 2.8 2.7  
Since 1 July snowfall 22.3 19.2  
Snow Depth 0.00 in    
Sea Level Pressure  
Sea Level Pressure 29.91 in    
Wind  
Wind Speed 14 mph (NW)    
Max Wind Speed 32 mph    
Max Gust Speed 43 mph    
Visibility 10 miles    
Events      
T = Trace of Precipitation, MM = Missing Value Source: NWS Daily Summary

Daily Weather History Graph

Daily Weather History Graph

Search for Another Location

Airport or City:

Trip Planner

Search our weather history database for the weather conditions in past years. The results will help you decide how hot, cold, wet, or windy it might be!

Date:

Astronomy

Feb. 15, 2014 Rise Set
Actual Time 7:39 AM CST 6:13 PM CST
Civil Twilight 7:10 AM CST 6:42 PM CST
Nautical Twilight 6:37 AM CST 7:16 PM CST
Astronomical Twilight 6:04 AM CST 7:48 PM CST
Moon 7:18 PM CST (2/15) 7:37 AM CST (2/15)
Length of Visible Light 11h 32m
Length of Day
10h 34m
Waxing Gibbous, 99% of the Moon is Illuminated
Feb 15
Waxing Gibbous
Feb 22
Last Quarter
Mar 1
New
Mar 8
First Quarter
Mar 16
Full

Hourly Weather History & Observations

Time (CST) Temp. Windchill Dew Point Humidity Pressure Visibility Wind Dir Wind Speed Gust Speed Precip Events Conditions
12:52 AM 37.0 °F 29.3 °F 26.1 °F 65% 29.80 in 10.0 mi SSW 11.5 mph - N/A   Overcast
1:52 AM 37.0 °F 28.9 °F 25.0 °F 62% 29.74 in 10.0 mi South 12.7 mph - N/A   Mostly Cloudy
2:52 AM 39.0 °F 31.0 °F 24.1 °F 55% 29.70 in 10.0 mi SSW 13.8 mph - N/A   Mostly Cloudy
3:52 AM 37.9 °F 29.2 °F 24.1 °F 57% 29.70 in 10.0 mi SW 15.0 mph - N/A   Partly Cloudy
4:52 AM 39.0 °F 33.4 °F 25.0 °F 57% 29.73 in 10.0 mi West 8.1 mph - N/A   Overcast
5:52 AM 44.1 °F 37.1 °F 28.9 °F 55% 29.74 in 10.0 mi NW 15.0 mph 21.9 mph N/A   Overcast
6:52 AM 43.0 °F 36.8 °F 30.9 °F 62% 29.79 in 10.0 mi WNW 11.5 mph - N/A   Overcast
7:52 AM 41.0 °F 33.9 °F 30.0 °F 65% 29.81 in 10.0 mi West 12.7 mph - N/A   Overcast
8:52 AM 42.1 °F 35.2 °F 28.9 °F 60% 29.83 in 10.0 mi WNW 12.7 mph - N/A   Partly Cloudy
9:52 AM 45.0 °F 37.1 °F 28.9 °F 53% 29.85 in 10.0 mi WNW 19.6 mph 25.3 mph N/A   Clear
10:52 AM 48.0 °F - 28.0 °F 46% 29.85 in 10.0 mi WNW 19.6 mph 35.7 mph N/A   Clear
11:52 AM 48.9 °F - 25.0 °F 39% 29.88 in 10.0 mi WNW 21.9 mph 34.5 mph N/A   Clear
12:52 PM 51.1 °F - 21.9 °F 32% 29.88 in 10.0 mi NW 28.8 mph 41.4 mph N/A   Clear
1:52 PM 52.0 °F - 21.9 °F 31% 29.89 in 10.0 mi NW 26.5 mph 34.5 mph N/A   Partly Cloudy
2:52 PM 53.1 °F - 21.9 °F 30% 29.90 in 10.0 mi NW 23.0 mph 33.4 mph N/A   Partly Cloudy
3:52 PM 50.0 °F - 21.0 °F 32% 29.96 in 10.0 mi NW 20.7 mph 35.7 mph N/A   Clear
4:52 PM 48.0 °F - 25.0 °F 41% 29.99 in 10.0 mi NNW 15.0 mph 25.3 mph N/A   Clear
5:52 PM 44.1 °F 38.6 °F 26.1 °F 49% 30.03 in 10.0 mi NNW 10.4 mph - N/A   Clear
6:52 PM 39.0 °F 31.8 °F 26.1 °F 60% 30.06 in 10.0 mi North 11.5 mph - N/A   Clear
7:52 PM 34.0 °F 25.5 °F 27.0 °F 75% 30.09 in 10.0 mi NNE 11.5 mph - N/A   Clear
8:52 PM 32.0 °F 25.6 °F 26.1 °F 79% 30.09 in 10.0 mi North 6.9 mph - N/A   Clear
9:52 PM 28.0 °F 24.2 °F 24.1 °F 85% 30.11 in 10.0 mi West 3.5 mph - N/A   Clear
10:52 PM 25.0 °F 20.7 °F 23.0 °F 92% 30.10 in 10.0 mi NW 3.5 mph - N/A   Clear
11:31 PM 26.6 °F 21.2 °F 24.8 °F 93% 30.03 in 10.0 mi NNE 4.6 mph - N/A   Mostly Cloudy
11:52 PM 28.0 °F 22.8 °F 25.0 °F 88% 30.09 in 10.0 mi East 4.6 mph - N/A   Overcast